| time (UTC) | temp C | wind direction | speed KPH | gust KPH | rain 1hr cm | rain 24hr cm | rain mn cm | humidity % | barometer mb |
| 20260503004503 | 12 | 116 | 3.2 | 3.2 | 0.00 | 0.00 | 0.00 | 60 | 1015.8 |
| 20260503003603 | 12 | 112 | 3.2 | 4.8 | 0.00 | 0.00 | 0.00 | 60 | 1015.9 |
| 20260503002704 | 12 | 113 | 3.2 | 3.2 | 0.00 | 0.00 | 0.00 | 60 | 1016.0 |
| 20260503001803 | 12 | 111 | 3.2 | 3.2 | 0.00 | 0.00 | 0.00 | 60 | 1016.0 |
| 20260503000903 | 12 | 110 | 3.2 | 3.2 | 0.00 | 0.00 | 0.00 | 59 | 1016.1 |
| 20260503000003 | 12 | 111 | 3.2 | 4.8 | 0.00 | 0.00 | 0.00 | 59 | 1016.4 |
| 20260502235403 | 12 | 110 | 3.2 | 4.8 | 0.00 | 0.00 | 0.00 | 59 | 1016.3 |
| 20260502234503 | 12 | 110 | 3.2 | 4.8 | 0.00 | 0.00 | 0.00 | 60 | 1016.4 |
| 20260502233603 | 12 | 111 | 3.2 | 4.8 | 0.00 | 0.00 | 0.00 | 60 | 1016.6 |
| 20260502232703 | 12 | 112 | 3.2 | 4.8 | 0.00 | 0.00 | 0.00 | 60 | 1016.9 |
| 20260502231803 | 12 | 113 | 3.2 | 4.8 | 0.00 | 0.00 | 0.00 | 60 | 1016.9 |
| 20260502230903 | 11 | 113 | 3.2 | 3.2 | 0.00 | 0.00 | 0.00 | 60 | 1016.9 |
| 20260502230003 | 11 | 110 | 3.2 | 3.2 | 0.00 | 0.00 | 0.00 | 60 | 1017.0 |
| 20260502225403 | 11 | 110 | 3.2 | 3.2 | 0.00 | 0.00 | 0.00 | 60 | 1017.0 |
| 20260502224503 | 11 | 109 | 3.2 | 3.2 | 0.00 | 0.00 | 0.00 | 60 | 1017.1 |
| 20260502223603 | 11 | 95 | 1.6 | 3.2 | 0.00 | 0.00 | 0.00 | 59 | 1017.1 |
| 20260502222703 | 11 | 109 | 0.0 | 3.2 | 0.00 | 0.00 | 0.00 | 59 | 1017.2 |
| 20260502221803 | 11 | 105 | 0.0 | 3.2 | 0.00 | 0.00 | 0.00 | 59 | 1017.2 |
| 20260502220903 | 11 | 112 | 1.6 | 3.2 | 0.00 | 0.00 | 0.00 | 59 | 1017.2 |
| 20260502220003 | 11 | 118 | 1.6 | 3.2 | 0.00 | 0.00 | 0.00 | 58 | 1017.2 |
| 20260502215404 | 12 | 126 | 1.6 | 4.8 | 0.00 | 0.00 | 0.00 | 58 | 1017.0 |
| 20260502214503 | 12 | 112 | 3.2 | 4.8 | 0.00 | 0.00 | 0.00 | 58 | 1017.2 |
| 20260502213603 | 12 | 117 | 3.2 | 4.8 | 0.00 | 0.00 | 0.00 | 58 | 1017.2 |
| 20260502212703 | 12 | 124 | 3.2 | 4.8 | 0.00 | 0.00 | 0.00 | 57 | 1017.1 |
| 20260502211803 | 12 | 118 | 3.2 | 4.8 | 0.00 | 0.00 | 0.00 | 57 | 1017.3 |
| 20260502210903 | 11 | 111 | 3.2 | 4.8 | 0.00 | 0.00 | 0.00 | 57 | 1017.1 |
| 20260502210003 | 11 | 99 | 3.2 | 4.8 | 0.00 | 0.00 | 0.00 | 58 | 1017.5 |
| 20260502205403 | 11 | 102 | 1.6 | 4.8 | 0.00 | 0.00 | 0.00 | 57 | 1017.5 |
| 20260502204503 | 12 | 143 | 1.6 | 3.2 | 0.00 | 0.00 | 0.00 | 57 | 1017.5 |
| 20260502203603 | 12 | 163 | 3.2 | 6.4 | 0.00 | 0.00 | 0.00 | 56 | 1017.7 |
| 20260502202703 | 12 | 166 | 3.2 | 6.4 | 0.00 | 0.00 | 0.00 | 56 | 1017.5 |
| 20260502201803 | 12 | 187 | 3.2 | 6.4 | 0.00 | 0.00 | 0.00 | 56 | 1017.5 |
| 20260502201118 | 12 | 180 | 3.2 | 4.8 | 0.00 | 0.00 | 0.00 | 56 | 1017.7 |
| 20260502200003 | 12 | 152 | 3.2 | 4.8 | 0.00 | 0.00 | 0.00 | 55 | 1017.7 |
| 20260502195403 | 12 | 156 | 1.6 | 4.8 | 0.00 | 0.00 | 0.00 | 55 | 1017.5 |
| 20260502194503 | 12 | 155 | 3.2 | 6.4 | 0.00 | 0.00 | 0.00 | 55 | 1017.7 |
| 20260502193603 | 12 | 162 | 3.2 | 8.0 | 0.00 | 0.00 | 0.00 | 55 | 1017.7 |
| 20260502192703 | 12 | 147 | 1.6 | 4.8 | 0.00 | 0.00 | 0.00 | 54 | 1017.7 |
| 20260502191803 | 13 | 202 | 1.6 | 4.8 | 0.00 | 0.00 | 0.00 | 54 | 1017.5 |
| 20260502190903 | 13 | 159 | 3.2 | 6.4 | 0.00 | 0.00 | 0.00 | 54 | 1017.5 |
| 20260502190004 | 13 | 150 | 3.2 | 9.7 | 0.00 | 0.00 | 0.00 | 54 | 1017.4 |
| 20260502185403 | 13 | 125 | 4.8 | 9.7 | 0.00 | 0.00 | 0.00 | 53 | 1017.5 |
| 20260502184503 | 13 | 111 | 3.2 | 8.0 | 0.00 | 0.00 | 0.00 | 53 | 1017.4 |
| 20260502183603 | 13 | 121 | 3.2 | 8.0 | 0.00 | 0.00 | 0.00 | 53 | 1017.3 |
| 20260502182703 | 13 | 76 | 1.6 | 6.4 | 0.00 | 0.00 | 0.00 | 53 | 1017.1 |
| 20260502182018 | 13 | 94 | 3.2 | 8.0 | 0.00 | 0.00 | 0.00 | 53 | 1017.1 |
| 20260502180903 | 13 | 95 | 3.2 | 9.7 | 0.00 | 0.00 | 0.00 | 53 | 1017.1 |
| 20260502163603 | 17 | 221 | 12.9 | 19.3 | 0.00 | 0.00 | 0.00 | 49 | 1017.1 |
| 20260502162703 | 17 | 216 | 9.7 | 19.3 | 0.00 | 0.00 | 0.00 | 48 | 1017.1 |
| 20260502161803 | 18 | 236 | 11.3 | 20.9 | 0.00 | 0.00 | 0.00 | 47 | 1017.1 |
| 20260502160903 | 18 | 232 | 8.0 | 17.7 | 0.00 | 0.00 | 0.00 | 47 | 1017.2 |
| 20260502152017 | 20 | 251 | 6.4 | 17.7 | 0.00 | 0.00 | 0.00 | 42 | 1017.8 |
| 20260502150903 | 19 | 248 | 8.0 | 17.7 | 0.00 | 0.00 | 0.00 | 42 | 1017.8 |
| 20260502123603 | 20 | 252 | 8.0 | 19.3 | 0.00 | 0.00 | 0.00 | 42 | 1019.1 |
| 20260502122703 | 19 | 283 | 6.4 | 17.7 | 0.00 | 0.00 | 0.00 | 42 | 1019.1 |
| 20260502121803 | 20 | 261 | 6.4 | 19.3 | 0.00 | 0.00 | 0.00 | 43 | 1019.3 |
| 20260502120903 | 19 | 248 | 6.4 | 19.3 | 0.00 | 0.00 | 0.00 | 43 | 1019.3 |
| 20260502115403 | 20 | 267 | 4.8 | 12.9 | 0.00 | 0.00 | 0.00 | 45 | 1019.4 |
| 20260502114503 | 18 | 251 | 6.4 | 17.7 | 0.00 | 0.00 | 0.00 | 44 | 1019.4 |
| 20260502113603 | 18 | 247 | 8.0 | 25.7 | 0.00 | 0.00 | 0.00 | 44 | 1019.5 |
| 20260502112703 | 18 | 264 | 6.4 | 14.5 | 0.00 | 0.00 | 0.00 | 45 | 1019.5 |
| 20260502111803 | 19 | 272 | 6.4 | 16.1 | 0.00 | 0.00 | 0.00 | 44 | 1019.7 |
| 20260502110903 | 18 | 243 | 6.4 | 16.1 | 0.00 | 0.00 | 0.00 | 44 | 1019.7 |
| 20260502110003 | 18 | 248 | 4.8 | 14.5 | 0.00 | 0.00 | 0.00 | 43 | 1019.8 |
| 20260502105617 | 18 | 250 | 4.8 | 16.1 | 0.00 | 0.00 | 0.00 | 44 | 1019.9 |
| 20260502104503 | 18 | 270 | 4.8 | 12.9 | 0.00 | 0.00 | 0.00 | 43 | 1019.9 |
| 20260502103603 | 19 | 282 | 3.2 | 9.7 | 0.00 | 0.00 | 0.00 | 42 | 1020.1 |
| 20260502102703 | 18 | 269 | 3.2 | 9.7 | 0.00 | 0.00 | 0.00 | 43 | 1020.2 |
| 20260502101116 | 18 | 284 | 3.2 | 6.4 | 0.00 | 0.00 | 0.00 | 43 | 1020.3 |
| 20260502100217 | 17 | 269 | 4.8 | 17.7 | 0.00 | 0.00 | 0.00 | 44 | 1020.5 |
| 20260502091118 | 16 | 260 | 4.8 | 17.7 | 0.00 | 0.00 | 0.00 | 45 | 1021.0 |
| 20260502090217 | 17 | 264 | 3.2 | 9.7 | 0.00 | 0.00 | 0.00 | 45 | 1021.0 |
| 20260502070903 | 14 | 276 | 0.0 | 3.2 | 0.00 | 0.00 | 0.00 | 48 | 1021.2 |
| 20260502070003 | 14 | 266 | 0.0 | 3.2 | 0.00 | 0.00 | 0.00 | 48 | 1021.2 |
| 20260502065403 | 13 | 275 | 1.6 | 4.8 | 0.00 | 0.00 | 0.00 | 49 | 1021.2 |
| 20260502064503 | 13 | 345 | 0.0 | 3.2 | 0.00 | 0.00 | 0.00 | 49 | 1021.2 |
| 20260502063817 | 13 | 332 | 0.0 | 3.2 | 0.00 | 0.00 | 0.00 | 50 | 1021.3 |
| 20260502062703 | 13 | 245 | 0.0 | 4.8 | 0.00 | 0.00 | 0.00 | 51 | 1021.3 |
| 20260502061803 | 13 | 349 | 0.0 | 3.2 | 0.00 | 0.00 | 0.00 | 53 | 1021.4 |
| 20260502060903 | 13 | 70 | 0.0 | 3.2 | 0.00 | 0.00 | 0.00 | 55 | 1021.3 |
| 20260502060003 | 12 | 65 | 0.0 | 3.2 | 0.00 | 0.00 | 0.00 | 58 | 1021.3 |
| 20260502055403 | 12 | 42 | 1.6 | 4.8 | 0.00 | 0.00 | 0.00 | 57 | 1021.2 |
| 20260502054505 | 11 | 42 | 1.6 | 6.4 | 0.00 | 0.00 | 0.00 | 58 | 1021.2 |
| 20260502053603 | 11 | 50 | 1.6 | 4.8 | 0.00 | 0.00 | 0.00 | 59 | 1021.3 |
| 20260502052703 | 10 | 31 | 1.6 | 4.8 | 0.00 | 0.00 | 0.00 | 60 | 1021.5 |
| 20260502051803 | 10 | 36 | 3.2 | 6.4 | 0.00 | 0.00 | 0.00 | 60 | 1021.4 |
| 20260502050903 | 9 | 45 | 0.0 | 3.2 | 0.00 | 0.00 | 0.00 | 61 | 1021.4 |
| 20260502050218 | 8 | 0 | 0.0 | 0.0 | 0.00 | 0.00 | 0.00 | 60 | 1021.5 |
| 20260502045403 | 8 | 20 | 0.0 | 3.2 | 0.00 | 0.00 | 0.00 | 60 | 1021.3 |
| 20260502044504 | 8 | 20 | 3.2 | 6.4 | 0.00 | 0.00 | 0.00 | 60 | 1021.3 |
| 20260502043603 | 8 | 22 | 4.8 | 8.0 | 0.00 | 0.00 | 0.00 | 60 | 1021.3 |
| 20260502042703 | 8 | 25 | 4.8 | 8.0 | 0.00 | 0.00 | 0.00 | 61 | 1021.3 |
| 20260502041803 | 8 | 76 | 4.8 | 6.4 | 0.00 | 0.00 | 0.00 | 61 | 1021.4 |
| 20260502040903 | 8 | 42 | 4.8 | 6.4 | 0.00 | 0.00 | 0.00 | 62 | 1021.3 |
| 20260502040217 | 8 | 31 | 6.4 | 6.4 | 0.00 | 0.00 | 0.00 | 62 | 1021.3 |
| 20260502035403 | 8 | 59 | 4.8 | 6.4 | 0.00 | 0.00 | 0.00 | 61 | 1021.4 |
| 20260502034503 | 8 | 98 | 3.2 | 4.8 | 0.00 | 0.00 | 0.00 | 62 | 1021.3 |
| 20260502033603 | 7 | 137 | 1.6 | 3.2 | 0.00 | 0.00 | 0.00 | 62 | 1021.3 |
| 20260502032703 | 8 | 22 | 1.6 | 6.4 | 0.00 | 0.00 | 0.00 | 61 | 1021.2 |
| 20260502031803 | 8 | 24 | 6.4 | 8.0 | 0.00 | 0.00 | 0.00 | 62 | 1021.2 |
| 20260502030903 | 8 | 35 | 4.8 | 8.0 | 0.00 | 0.00 | 0.00 | 62 | 1021.2 |
| 20260502030003 | 7 | 37 | 4.8 | 9.7 | 0.00 | 0.00 | 0.00 | 62 | 1021.3 |
| 20260502025403 | 8 | 29 | 4.8 | 6.4 | 0.00 | 0.00 | 0.00 | 62 | 1021.3 |
| 20260502024503 | 8 | 33 | 4.8 | 6.4 | 0.00 | 0.00 | 0.00 | 62 | 1021.5 |
| 20260502023817 | 8 | 29 | 4.8 | 6.4 | 0.00 | 0.00 | 0.00 | 62 | 1021.4 |
| 20260502022703 | 8 | 34 | 3.2 | 6.4 | 0.00 | 0.00 | 0.00 | 62 | 1021.4 |
| 20260502021803 | 7 | 49 | 4.8 | 4.8 | 0.00 | 0.00 | 0.00 | 62 | 1021.4 |
| 20260502020903 | 7 | 34 | 4.8 | 8.0 | 0.00 | 0.00 | 0.00 | 62 | 1021.5 |
| 20260502020003 | 7 | 24 | 4.8 | 8.0 | 0.00 | 0.00 | 0.00 | 62 | 1021.5 |
| 20260502015403 | 7 | 26 | 6.4 | 8.0 | 0.00 | 0.00 | 0.00 | 62 | 1021.4 |
| 20260502014503 | 8 | 26 | 4.8 | 8.0 | 0.00 | 0.00 | 0.00 | 61 | 1021.5 |
| 20260502013603 | 8 | 19 | 4.8 | 8.0 | 0.00 | 0.00 | 0.00 | 60 | 1021.6 |
| 20260502012918 | 8 | 18 | 4.8 | 8.0 | 0.00 | 0.00 | 0.00 | 60 | 1021.4 |
| 20260502011803 | 8 | 39 | 4.8 | 6.4 | 0.00 | 0.00 | 0.00 | 61 | 1021.5 |
| 20260502011117 | 8 | 45 | 4.8 | 4.8 | 0.00 | 0.00 | 0.00 | 60 | 1021.7 |
| 20260502010004 | 8 | 38 | 4.8 | 4.8 | 0.00 | 0.00 | 0.00 | 60 | 1021.6 |
| 20260502005403 | 8 | 37 | 4.8 | 4.8 | 0.00 | 0.00 | 0.00 | 60 | 1021.7 |